APJ125 RJBB-RJFM

Flight info

Callsign APJ125
Flight time N/A
Altitude 30000
Route OBLUR Y236 VEXOT Y756 KRE Y232 SIROK Y402 RYUGU
Aircraft A320/M-SDE3FGHIRWY/LB1

Departure

Time N/A
Airport Kansai International Airport (RJBB)

Arrival

Time 2026-05-03 20:38
Airport Miyazaki Airport (RJFM)
Time Latitude Longitude Altitude Speed Heading
2026-05-03 20:15 32.70720 132.77963 27294 ft 358 kts 227°
2026-05-03 20:15 32.68870 132.75992 26894 ft 357 kts 226°
2026-05-03 20:15 32.67010 132.74013 26488 ft 360 kts 226°
2026-05-03 20:15 32.65121 132.72000 26054 ft 370 kts 226°
2026-05-03 20:16 32.63200 132.69953 25613 ft 372 kts 226°
2026-05-03 20:16 32.61281 132.67920 25247 ft 364 kts 226°
2026-05-03 20:16 32.59425 132.65964 24897 ft 352 kts 226°
2026-05-03 20:16 32.57603 132.64041 24307 ft 351 kts 226°
2026-05-03 20:17 32.55779 132.62110 23841 ft 351 kts 226°
2026-05-03 20:17 32.53959 132.60182 23386 ft 349 kts 226°
2026-05-03 20:17 32.52153 132.58271 22888 ft 348 kts 226°
2026-05-03 20:17 32.50354 132.56364 22447 ft 346 kts 226°
2026-05-03 20:18 32.48591 132.54496 22019 ft 344 kts 226°
2026-05-03 20:18 32.46807 132.52609 21588 ft 342 kts 226°
2026-05-03 20:18 32.45039 132.50737 21169 ft 340 kts 226°
2026-05-03 20:18 32.43280 132.48873 20750 ft 338 kts 226°
2026-05-03 20:19 32.41533 132.47025 20321 ft 336 kts 226°
2026-05-03 20:19 32.39791 132.45187 19912 ft 335 kts 226°
2026-05-03 20:19 32.38051 132.43354 19508 ft 333 kts 226°
2026-05-03 20:19 32.36329 132.41541 19098 ft 331 kts 226°
2026-05-03 20:20 32.34609 132.39730 18689 ft 329 kts 226°
2026-05-03 20:20 32.32908 132.37938 18291 ft 327 kts 226°
2026-05-03 20:20 32.31211 132.36151 17861 ft 326 kts 226°
2026-05-03 20:20 32.29518 132.34373 17452 ft 324 kts 226°
2026-05-03 20:21 32.27837 132.32604 17061 ft 323 kts 226°
2026-05-03 20:21 32.26191 132.30878 16809 ft 305 kts 226°
2026-05-03 20:21 32.24669 132.29292 16682 ft 279 kts 226°
2026-05-03 20:21 32.23266 132.27832 16439 ft 261 kts 226°
2026-05-03 20:22 32.21930 132.26433 15915 ft 254 kts 226°
2026-05-03 20:22 32.20651 132.25020 15376 ft 250 kts 232°
2026-05-03 20:22 32.19514 132.23448 14968 ft 252 kts 232°
2026-05-03 20:22 32.18362 132.21884 14588 ft 253 kts 232°
2026-05-03 20:23 32.17199 132.20320 14210 ft 254 kts 232°
2026-05-03 20:23 32.16033 132.18759 13888 ft 253 kts 231°
2026-05-03 20:23 32.14877 132.17212 13600 ft 250 kts 231°
2026-05-03 20:23 32.13729 132.15674 13224 ft 249 kts 232°
2026-05-03 20:24 32.12585 132.14138 12851 ft 249 kts 232°
2026-05-03 20:24 32.11468 132.12643 12636 ft 237 kts 232°
2026-05-03 20:24 32.10388 132.11197 12181 ft 234 kts 232°
2026-05-03 20:24 32.09335 132.09788 11962 ft 220 kts 232°
2026-05-03 20:25 32.08339 132.08460 11770 ft 217 kts 232°
2026-05-03 20:25 32.07360 132.07153 11485 ft 209 kts 232°
2026-05-03 20:25 32.06386 132.05849 10846 ft 216 kts 232°
2026-05-03 20:25 32.05389 132.04508 10494 ft 219 kts 232°
2026-05-03 20:26 32.04396 132.03177 10294 ft 213 kts 232°
2026-05-03 20:26 32.03410 132.01858 9878 ft 217 kts 232°
2026-05-03 20:26 32.02408 132.00520 9596 ft 214 kts 232°
2026-05-03 20:26 32.01424 131.99204 9179 ft 216 kts 232°
2026-05-03 20:27 32.00433 131.97881 8953 ft 210 kts 232°
2026-05-03 20:27 31.99500 131.96644 8807 ft 195 kts 233°
2026-05-03 20:27 31.98601 131.95444 8475 ft 197 kts 233°
2026-05-03 20:27 31.97693 131.94231 8165 ft 198 kts 233°
2026-05-03 20:28 31.96784 131.93019 7855 ft 197 kts 233°
2026-05-03 20:28 31.95876 131.91811 7394 ft 197 kts 234°
2026-05-03 20:28 31.94965 131.90595 6939 ft 198 kts 234°
2026-05-03 20:28 31.94044 131.89364 6515 ft 204 kts 234°
2026-05-03 20:29 31.93097 131.88098 6138 ft 207 kts 234°
2026-05-03 20:29 31.92157 131.86845 5895 ft 204 kts 234°
2026-05-03 20:29 31.91230 131.85557 5543 ft 204 kts 240°
2026-05-03 20:29 31.90580 131.84130 5395 ft 193 kts 252°
2026-05-03 20:30 31.90265 131.82627 5166 ft 190 kts 265°
2026-05-03 20:30 31.90205 131.81071 4893 ft 189 kts 268°
2026-05-03 20:30 31.90133 131.79549 4743 ft 183 kts 267°
2026-05-03 20:30 31.90042 131.78089 4632 ft 175 kts 267°
2026-05-03 20:31 31.89949 131.76710 4579 ft 164 kts 267°
2026-05-03 20:31 31.89859 131.75390 4488 ft 161 kts 267°
2026-05-03 20:31 31.89769 131.74071 4409 ft 161 kts 267°
2026-05-03 20:31 31.89702 131.73104 4368 ft 162 kts 267°
2026-05-03 20:32 31.89611 131.71783 4221 ft 162 kts 267°
2026-05-03 20:32 31.89518 131.70455 4022 ft 163 kts 268°
2026-05-03 20:32 31.89426 131.69119 3809 ft 164 kts 268°
2026-05-03 20:32 31.89334 131.67808 3598 ft 162 kts 269°
2026-05-03 20:33 31.89242 131.66489 3385 ft 162 kts 269°
2026-05-03 20:33 31.89149 131.65156 3169 ft 163 kts 269°
2026-05-03 20:33 31.89056 131.63821 2950 ft 164 kts 268°
2026-05-03 20:33 31.88962 131.62489 2733 ft 163 kts 268°
2026-05-03 20:34 31.88870 131.61178 2509 ft 159 kts 267°
2026-05-03 20:34 31.88780 131.59909 2301 ft 152 kts 268°
2026-05-03 20:34 31.88695 131.58699 2130 ft 147 kts 268°
2026-05-03 20:34 31.88612 131.57509 1919 ft 145 kts 267°
2026-05-03 20:35 31.88529 131.56341 1705 ft 138 kts 267°
2026-05-03 20:35 31.88452 131.55248 1533 ft 131 kts 267°
2026-05-03 20:35 31.88377 131.54190 1354 ft 129 kts 266°
2026-05-03 20:35 31.88303 131.53139 1185 ft 128 kts 266°
2026-05-03 20:36 31.88228 131.52084 1011 ft 130 kts 266°
2026-05-03 20:36 31.88153 131.51022 836 ft 130 kts 266°
2026-05-03 20:36 31.88077 131.49958 671 ft 130 kts 264°
2026-05-03 20:36 31.88002 131.48897 506 ft 131 kts 264°
2026-05-03 20:37 31.87915 131.47834 353 ft 129 kts 264°
2026-05-03 20:37 31.87845 131.46789 208 ft 128 kts 264°
2026-05-03 20:37 31.87774 131.45763 46 ft 119 kts 264°
2026-05-03 20:37 31.87718 131.44993 33 ft 76 kts 265°
2026-05-03 20:38 31.87694 131.44654 33 ft 23 kts 264°
2026-05-03 20:38 31.87601 131.44586 33 ft 11 kts 176°
2026-05-03 20:38 31.87534 131.44572 31 ft 10 kts 221°
2026-05-03 20:38 31.87518 131.44521 33 ft 4 kts 262°
2026-05-03 20:39 31.87517 131.44516 33 ft 0 kts 265°
2026-05-03 20:40 31.87517 131.44508 33 ft 2 kts 265°
2026-05-03 20:41 31.87515 131.44478 33 ft 5 kts 265°
2026-05-03 20:41 31.87511 131.44428 33 ft 7 kts 265°
2026-05-03 20:41 31.87503 131.44366 33 ft 7 kts 243°
2026-05-03 20:41 31.87452 131.44355 33 ft 7 kts 174°
2026-05-03 20:42 31.87417 131.44358 33 ft 4 kts 175°
2026-05-03 20:42 31.87390 131.44361 33 ft 3 kts 175°
2026-05-03 20:42 31.87372 131.44363 33 ft 2 kts 175°
2026-05-03 20:42 31.87370 131.44363 33 ft 0 kts 175°